Redmond, OR

7:09 AM PDT on July 26, 2017 (GMT -0700)
Roberts Field Airport

Weather History for KRDM - August, 2012

Change the Weather History Date:

Wednesday, August 15, 2012

  Actual Average Record
Temperature  
Mean Temperature 71 °F 66 °F  
Max Temperature 90 °F 85 °F 102 °F (1967)
Min Temperature 52 °F 46 °F 36 °F (1968)
Degree Days  
Heating Degree Days 0 2  
Month to date heating degree days 2 27  
Since 1 June heating degree days 315 313  
Since 1 July heating degree days 51 96  
Cooling Degree Days 6 3  
Month to date cooling degree days 73 51  
Year to date cooling degree days 164 177  
Since 1 June cooling degree days 164 172  
Growing Degree Days 22 (Base 50)    
Moisture  
Dew Point 45 °F    
Average Humidity 45    
Maximum Humidity 71    
Minimum Humidity 19    
Precipitation  
Precipitation 0.00 in 0.02 in 0.44 in (1961)
Month to date precipitation 0.01 0.24  
Year to date precipitation 7.65 5.47  
Sea Level Pressure  
Sea Level Pressure 29.89 in    
Wind  
Wind Speed 8 mph (NW)    
Max Wind Speed 21 mph    
Max Gust Speed 28 mph    
Visibility 10 miles    
Events      
T = Trace of Precipitation, MM = Missing Value Source: NWS Daily Summary

Daily Weather History Graph

Daily Weather History Graph

Search for Another Location

Airport or City:

Trip Planner

Search our weather history database for the weather conditions in past years. The results will help you decide how hot, cold, wet, or windy it might be!

Date:

Astronomy

Aug. 15, 2012 Rise Set
Actual Time 6:08 AM PDT 8:08 PM PDT
Civil Twilight 5:37 AM PDT 8:39 PM PDT
Nautical Twilight 4:58 AM PDT 9:18 PM PDT
Astronomical Twilight 4:16 AM PDT 10:00 PM PDT
Moon 4:08 AM PDT (8/15) 6:45 PM PDT (8/15)
Length of Visible Light 15h 02m
Length of Day
13h 59m
Waning Crescent, 4% of the Moon is Illuminated
Aug 15
Waning Crescent
Aug 17
New
Aug 24
First Quarter
Aug 31
Full
Sep 8
Last Quarter

Hourly Weather History & Observations

Time (PDT) Temp. Dew Point Humidity Pressure Visibility Wind Dir Wind Speed Gust Speed Precip Events Conditions
12:56 AM 63.0 °F 46.0 °F 54% 29.84 in 10.0 mi Calm Calm - N/A   Smoke
1:56 AM 59.0 °F 45.0 °F 60% 29.85 in 10.0 mi South 3.5 mph - N/A   Smoke
2:56 AM 55.9 °F 44.1 °F 64% 29.86 in 10.0 mi South 4.6 mph - N/A   Smoke
3:56 AM 55.9 °F 44.1 °F 64% 29.87 in 10.0 mi Calm Calm - N/A   Smoke
4:56 AM 53.1 °F 43.0 °F 69% 29.88 in 10.0 mi SE 4.6 mph - N/A   Smoke
5:56 AM 54.0 °F 44.1 °F 69% 29.88 in 10.0 mi South 3.5 mph - N/A   Smoke
6:56 AM 55.0 °F 44.1 °F 67% 29.91 in 10.0 mi Calm Calm - N/A   Smoke
7:56 AM 64.0 °F 45.0 °F 50% 29.92 in 10.0 mi Calm Calm - N/A   Smoke
8:56 AM 69.1 °F 50.0 °F 51% 29.93 in 10.0 mi NW 8.1 mph - N/A   Smoke
9:56 AM 73.0 °F 48.9 °F 42% 29.94 in 10.0 mi NW 5.8 mph - N/A   Smoke
10:56 AM 78.1 °F 46.0 °F 32% 29.93 in 10.0 mi North 5.8 mph - N/A   Smoke
11:56 AM 82.0 °F 45.0 °F 27% 29.92 in 10.0 mi NNE 5.8 mph - N/A   Clear
12:56 PM 82.9 °F 46.9 °F 28% 29.91 in 10.0 mi NNW 11.5 mph - N/A   Clear
1:56 PM 87.1 °F 44.1 °F 22% 29.89 in 10.0 mi NNW 10.4 mph - N/A   Clear
2:56 PM 88.0 °F 44.1 °F 22% 29.87 in 10.0 mi NNW 13.8 mph 21.9 mph N/A   Clear
3:56 PM 89.1 °F 43.0 °F 20% 29.86 in 10.0 mi NNW 13.8 mph - N/A   Clear
4:56 PM 90.0 °F 41.0 °F 18% 29.85 in 10.0 mi NNW 11.5 mph 19.6 mph N/A   Clear
5:56 PM 89.1 °F 42.1 °F 19% 29.84 in 10.0 mi NNW 15.0 mph - N/A   Clear
6:56 PM 84.9 °F 43.0 °F 23% 29.85 in 10.0 mi NNW 13.8 mph - N/A   Clear
7:56 PM 81.0 °F 44.1 °F 27% 29.86 in 10.0 mi NNW 12.7 mph - N/A   Clear
9:56 PM 73.9 °F 45.0 °F 35% 29.90 in 10.0 mi NW 6.9 mph - N/A   Clear
10:56 PM 72.0 °F 45.0 °F 38% 29.92 in 10.0 mi WNW 9.2 mph - N/A   Clear
11:56 PM 69.1 °F 45.0 °F 42% 29.93 in 10.0 mi WNW 6.9 mph - N/A   Clear